Walla Walla, WA
on Sunday, January 6, 2013

Sunday
Previous Day Next Day
Daily Summary
 ActualAverage (KPDT)Record (KPDT)
Temperature
Mean Temperature °F 34°F  
Max Temperature 39°F 40°F 70°F (1914)
Min Temperature 28°F 28°F -6°F (1942)
Degree Days
Heating Degree Days 32 31  
Month to date heating degree days 189  
Since 1 July heating degree days 2426  
Cooling Degree Days 0 0  
Month to date cooling degree days 0  
Year to date cooling degree days 0  
Moisture
Dew Point 28°F   
Average Humidity 81    
Maximum Humidity 92    
Minimum Humidity 70    
Precipitation
Precipitation 0.00 in 0.05 in 2.00 in (1912)
Month to date precipitation 0.30  
Year to date precipitation 0.30  
Snow
Snow 0.00 in 0.10 in 1.90 in (2004)
Month to date snowfall 0.9  
Year to date snowfall 0.9  
Since 1 July snowfall 8.4  
Snow Depth in   
Wind
Wind Speed 2 mph   
Max Wind Speed 5 mph   
Max Gust Speed mph   
Visibility 7 miles   
Events     

Key: T is trace of precipitation, MM is missing value
Source: NWS Daily Summary
Time(PST)TemperatureDew PointHumidity Pressure Visibility Wind DirectionWind SpeedGust SpeedPrecipitationEvents Conditions
12:53 AM 30.0°F 26.1°F 85% 30.25 in 7.0 miles Calm Calm - N/A   Overcast
1:53 AM 30.0°F 26.1°F 85% 30.25 in 7.0 miles Calm Calm - N/A   Overcast
2:53 AM 30.0°F 26.1°F 85% 30.26 in 7.0 miles South 3.5 mph - N/A   Overcast
3:53 AM 28.9°F 27.0°F 92% 30.25 in 5.0 miles South 4.6 mph - N/A   Overcast
4:53 AM 30.0°F 27.0°F 88% 30.22 in 5.0 miles ESE 3.5 mph - N/A   Overcast
5:53 AM 32.0°F 26.1°F 79% 30.21 in 7.0 miles Calm Calm - 0.00 in   Overcast
6:53 AM 30.9°F 28.0°F 89% 30.22 in 7.0 miles Calm Calm - 0.00 in   Overcast
7:53 AM 33.1°F 26.1°F 75% 30.24 in 8.0 miles Calm Calm - N/A   Overcast
8:53 AM 33.1°F 27.0°F 78% 30.24 in 7.0 miles South 3.5 mph - N/A   Overcast
9:53 AM 32.0°F 28.0°F 85% 30.25 in 4.0 miles West 3.5 mph - N/A   Overcast
10:53 AM 34.0°F 28.0°F 79% 30.25 in 6.0 miles Calm Calm - N/A   Haze
11:53 AM 35.1°F 28.9°F 78% 30.22 in 5.0 miles Calm Calm - N/A   Haze
12:53 PM 37.9°F 28.9°F 70% 30.19 in 9.0 miles Calm Calm - N/A   Partly Cloudy
1:53 PM 37.9°F 30.0°F 73% 30.18 in 8.0 miles WNW 3.5 mph - N/A   Mostly Cloudy
2:53 PM 39.0°F 30.9°F 73% 30.17 in 7.0 miles SSW 4.6 mph - N/A   Clear
3:53 PM 39.0°F 30.0°F 70% 30.19 in 7.0 miles SSE 3.5 mph - N/A   Mostly Cloudy
4:53 PM 36.0°F 28.9°F 76% 30.16 in 8.0 miles SSE 3.5 mph - N/A   Clear
5:53 PM 33.1°F 30.0°F 89% 30.17 in 7.0 miles West 4.6 mph - N/A   Clear
6:53 PM 33.1°F 28.9°F 85% 30.17 in 7.0 miles ESE 3.5 mph - N/A   Clear
7:53 PM 37.0°F 30.0°F 76% 30.15 in 10.0 miles SSE 4.6 mph - N/A   Clear
8:53 PM 37.0°F 30.0°F 76% 30.14 in 10.0 miles South 3.5 mph - N/A   Clear
9:53 PM 36.0°F 28.9°F 76% 30.14 in 10.0 miles Calm Calm - N/A   Clear
10:53 PM 32.0°F 28.9°F 88% 30.13 in 10.0 miles Calm Calm - N/A   Clear
11:53 PM 34.0°F 30.0°F 85% 30.10 in 10.0 miles Calm Calm - N/A   Overcast
Moon Phase
Jan. 06 Jan. 11 Jan. 18 Jan. 26 Feb. 03
Sunrise:07:34 AM (PST) Moon Rise:01:47 AM (PST)1/6
Sunset:04:23 PM (PST) Moon Set:12:00 PM (PST)1/6

Copyright © 2014 The Weather Underground, Inc.